This demonstration page uses our WeatherBlox Daily Observations layout. Learn more.

Hourly Observations for October 13, 2020

Temp ( °F °C ) Dew Point ( °F °C ) Humidity (%) Winds ( mph kmh ) Pressure ( in mb ) Visibility ( mi km ) Precip ( " mm )
12:54 am 00:54 Clear 58 14.4 33 0.6 39 39 S 13 20 29.9 1013 10 16.0934 0 0
1:54 am 01:54 Clear 59 15 32 0 36 36 SSW 15 24 29.89 1012 10 16.0934 0 0
2:54 am 02:54 Clear 58 14.4 32 0 38 38 SW 12 19 29.91 1013 10 16.0934 0 0
3:54 am 03:54 Clear 57 13.9 32 0 39 39 SSW 13 20 29.89 1012 10 16.0934 0 0
4:54 am 04:54 Clear 57 13.9 32 0 39 39 NNW 9 15 29.95 1014 10 16.0934 0 0
5:54 am 05:54 Clear 56 13.3 33 0.6 42 42 W 5 7 29.97 1015 10 16.0934 0 0
6:54 am 06:54 Clear 54 12.2 33 0.6 45 45 W 5 7 30.02 1017 10 16.0934 0 0
7:54 am 07:54 Sunny 47 8.3 34 1.1 61 61 N 5 7 30.08 1019 10 16.0934 0 0
8:54 am 08:54 Sunny 55 12.8 37 2.8 51 51 N 8 13 30.12 1020 10 16.0934 0 0
9:54 am 09:54 Sunny 61 16.1 39 3.9 44 44 N 18 30 30.15 1021 10 16.0934 0 0
10:54 am 10:54 Sunny 64 17.8 38 3.3 38 38 N 21 33 30.16 1022 10 16.0934 0 0
11:54 am 11:54 Sunny 65 18.3 39 3.9 39 39 N 12 19 30.17 1022 10 16.0934 0 0
12:54 pm 12:54 Sunny 69 20.6 38 3.3 32 32 N 12 19 30.17 1022 10 16.0934 0 0
1:54 pm 13:54 Sunny 70 21.1 36 2.2 29 29 NNW 10 17 30.13 1020 10 16.0934 0 0
2:54 pm 14:54 Sunny 70 21.1 36 2.2 29 29 VRB 6 9 30.12 1020 10 16.0934 0 0
3:54 pm 15:54 Sunny 72 22.2 36 2.2 27 27 VRB 3 6 30.08 1019 10 16.0934 0 0
4:54 pm 16:54 Sunny 70 21.1 35 1.7 28 28 S 3 6 30.07 1018 10 16.0934 0 0
5:54 pm 17:54 Sunny 68 20 37 2.8 32 32 SSE 5 7 30.06 1018 10 16.0934 0 0
6:54 pm 18:54 Clear 61 16.1 38 3.3 43 43 S 6 9 30.05 1018 10 16.0934 0 0
7:54 pm 19:54 Clear 60 15.6 37 2.8 42 42 Calm 30.04 1017 10 16.0934 0 0
8:54 pm 20:54 Clear 57 13.9 37 2.8 47 47 Calm 30.03 1017 10 16.0934 0 0
9:54 pm 21:54 Clear 56 13.3 40 4.4 55 55 Calm 30.01 1016 10 16.0934 0 0
10:54 pm 22:54 Clear 51 10.6 39 3.9 64 64 S 6 9 29.98 1015 10 16.0934 0 0
11:54 pm 23:54 Clear 52 11.1 38 3.3 59 59 S 5 7 29.94 1014 10 16.0934 0 0

Powered by AerisWeather